| time (UTC) | temp C | wind direction | speed KPH | gust KPH | rain 1hr cm | rain 24hr cm | rain mn cm | humidity % | barometer mb |
| 20260505034628 | 18 | 204 | 1.6 | 6.4 | 0.00 | 0.00 | 0.00 | 32 | 1005.5 |
| 20260505033617 | 18 | 204 | 1.6 | 8.0 | 0.00 | 0.00 | 0.00 | 31 | 1005.5 |
| 20260505032624 | 18 | 250 | 1.6 | 3.2 | 0.00 | 0.00 | 0.00 | 30 | 1005.5 |
| 20260505031650 | 18 | 250 | 0.0 | 8.0 | 0.00 | 0.00 | 0.00 | 30 | 1005.5 |
| 20260505030621 | 18 | 258 | 0.0 | 17.7 | 0.00 | 0.00 | 0.00 | 30 | 1005.4 |
| 20260505025617 | 18 | 246 | 1.6 | 9.7 | 0.00 | 0.00 | 0.00 | 30 | 1005.2 |
| 20260505024645 | 18 | 224 | 1.6 | 4.8 | 0.00 | 0.00 | 0.00 | 32 | 1005.0 |
| 20260505023630 | 17 | 355 | 3.2 | 8.0 | 0.00 | 0.00 | 0.00 | 31 | 1004.8 |
| 20260505022616 | 18 | 236 | 0.0 | 11.3 | 0.00 | 0.00 | 0.00 | 31 | 1004.6 |
| 20260505021630 | 20 | 217 | 0.0 | 4.8 | 0.00 | 0.00 | 0.00 | 28 | 1004.2 |
| 20260505020618 | 20 | 117 | 0.0 | 1.6 | 0.00 | 0.00 | 0.00 | 25 | 1004.0 |
| 20260505015617 | 20 | 109 | 3.2 | 8.0 | 0.00 | 0.00 | 0.00 | 24 | 1003.9 |
| 20260505014622 | 21 | 137 | 3.2 | 11.3 | 0.00 | 0.00 | 0.00 | 24 | 1003.9 |
| 20260505013616 | 21 | 107 | 4.8 | 14.5 | 0.00 | 0.00 | 0.00 | 24 | 1004.0 |
| 20260505012626 | 21 | 211 | 9.7 | 30.6 | 0.00 | 0.00 | 0.00 | 23 | 1004.2 |
| 20260505011614 | 21 | 200 | 14.5 | 25.7 | 0.00 | 0.00 | 0.00 | 23 | 1004.3 |
| 20260505010643 | 21 | 231 | 6.4 | 19.3 | 0.00 | 0.00 | 0.00 | 23 | 1004.5 |
| 20260505005644 | 21 | 76 | 8.0 | 14.5 | 0.00 | 0.00 | 0.00 | 22 | 1004.4 |
| 20260505004631 | 21 | 188 | 8.0 | 12.9 | 0.00 | 0.00 | 0.00 | 24 | 1004.4 |
| 20260505003638 | 21 | 118 | 3.2 | 12.9 | 0.00 | 0.00 | 0.00 | 23 | 1004.2 |
| 20260505002624 | 22 | 180 | 6.4 | 14.5 | 0.00 | 0.00 | 0.00 | 23 | 1004.6 |
| 20260505001616 | 21 | 88 | 9.7 | 19.3 | 0.00 | 0.00 | 0.00 | 22 | 1004.2 |
| 20260505000620 | 22 | 90 | 14.5 | 22.5 | 0.00 | 0.00 | 0.00 | 23 | 1004.2 |
| 20260504235617 | 22 | 59 | 8.0 | 20.9 | 0.00 | 0.00 | 0.00 | 23 | 1004.1 |
| 20260504234623 | 23 | 27 | 6.4 | 11.3 | 0.00 | 0.00 | 0.00 | 21 | 1004.2 |
| 20260504233616 | 23 | 360 | 4.8 | 14.5 | 0.00 | 0.00 | 0.00 | 19 | 1004.1 |
| 20260504232626 | 24 | 306 | 4.8 | 14.5 | 0.00 | 0.00 | 0.00 | 17 | 1004.1 |
| 20260504231616 | 25 | 265 | 9.7 | 19.3 | 0.00 | 0.00 | 0.00 | 16 | 1004.1 |
| 20260504230626 | 25 | 168 | 3.2 | 11.3 | 0.00 | 0.00 | 0.00 | 16 | 1004.1 |
| 20260504225631 | 25 | 180 | 8.0 | 17.7 | 0.00 | 0.00 | 0.00 | 16 | 1004.1 |
| 20260504224621 | 25 | 217 | 1.6 | 11.3 | 0.00 | 0.00 | 0.00 | 16 | 1004.2 |
| 20260504223632 | 25 | 227 | 6.4 | 16.1 | 0.00 | 0.00 | 0.00 | 17 | 1004.3 |
| 20260504222622 | 24 | 98 | 4.8 | 14.5 | 0.00 | 0.00 | 0.00 | 16 | 1004.2 |
| 20260504221613 | 25 | 300 | 3.2 | 12.9 | 0.00 | 0.00 | 0.00 | 16 | 1004.6 |
| 20260504220621 | 25 | 211 | 3.2 | 9.7 | 0.00 | 0.00 | 0.00 | 16 | 1004.7 |
| 20260504215619 | 24 | 200 | 6.4 | 17.7 | 0.00 | 0.00 | 0.00 | 18 | 1004.8 |
| 20260504214627 | 24 | 169 | 9.7 | 20.9 | 0.00 | 0.00 | 0.00 | 18 | 1004.9 |
| 20260504213617 | 25 | 160 | 11.3 | 22.5 | 0.00 | 0.00 | 0.00 | 18 | 1005.0 |
| 20260504212644 | 24 | 235 | 11.3 | 20.9 | 0.00 | 0.00 | 0.00 | 19 | 1005.3 |
| 20260504211629 | 23 | 101 | 4.8 | 22.5 | 0.00 | 0.00 | 0.00 | 19 | 1005.4 |
| 20260504210618 | 23 | 175 | 4.8 | 19.3 | 0.00 | 0.00 | 0.00 | 18 | 1005.6 |
| 20260504205641 | 23 | 211 | 8.0 | 19.3 | 0.00 | 0.00 | 0.00 | 19 | 1005.7 |
| 20260504204613 | 23 | 208 | 9.7 | 17.7 | 0.00 | 0.00 | 0.00 | 18 | 1005.9 |
| 20260504203620 | 23 | 202 | 12.9 | 22.5 | 0.00 | 0.00 | 0.00 | 21 | 1006.0 |
| 20260504202629 | 23 | 178 | 11.3 | 24.1 | 0.00 | 0.00 | 0.00 | 20 | 1006.0 |
| 20260504201615 | 23 | 186 | 14.5 | 24.1 | 0.00 | 0.00 | 0.00 | 20 | 1006.2 |
| 20260504200625 | 23 | 156 | 6.4 | 16.1 | 0.00 | 0.00 | 0.00 | 21 | 1006.2 |
| 20260504195626 | 23 | 168 | 6.4 | 16.1 | 0.00 | 0.00 | 0.00 | 21 | 1006.3 |
| 20260504194613 | 23 | 194 | 6.4 | 19.3 | 0.00 | 0.00 | 0.00 | 21 | 1006.6 |
| 20260504193640 | 23 | 184 | 8.0 | 14.5 | 0.00 | 0.00 | 0.00 | 22 | 1006.6 |
| 20260504192614 | 23 | 231 | 8.0 | 16.1 | 0.00 | 0.00 | 0.00 | 22 | 1006.8 |
| 20260504191622 | 23 | 231 | 8.0 | 17.7 | 0.00 | 0.00 | 0.00 | 21 | 1007.0 |
| 20260504190613 | 22 | 223 | 9.7 | 17.7 | 0.00 | 0.00 | 0.00 | 21 | 1007.1 |
| 20260504185615 | 22 | 257 | 4.8 | 17.7 | 0.00 | 0.00 | 0.00 | 22 | 1007.3 |
| 20260504184629 | 22 | 202 | 8.0 | 14.5 | 0.00 | 0.00 | 0.00 | 24 | 1007.5 |
| 20260504183620 | 22 | 179 | 8.0 | 17.7 | 0.00 | 0.00 | 0.00 | 24 | 1007.6 |
| 20260504182648 | 22 | 228 | 9.7 | 16.1 | 0.00 | 0.00 | 0.00 | 24 | 1007.7 |
| 20260504181615 | 21 | 159 | 9.7 | 17.7 | 0.00 | 0.00 | 0.00 | 25 | 1007.9 |
| 20260504180628 | 21 | 218 | 8.0 | 16.1 | 0.00 | 0.00 | 0.00 | 26 | 1008.0 |
| 20260504175614 | 21 | 72 | 3.2 | 19.3 | 0.00 | 0.00 | 0.00 | 26 | 1008.1 |
| 20260504174622 | 21 | 224 | 8.0 | 14.5 | 0.00 | 0.00 | 0.00 | 27 | 1008.1 |
| 20260504173631 | 21 | 219 | 6.4 | 16.1 | 0.00 | 0.00 | 0.00 | 29 | 1008.2 |
| 20260504172620 | 21 | 223 | 8.0 | 16.1 | 0.00 | 0.00 | 0.00 | 30 | 1008.3 |
| 20260504171613 | 21 | 238 | 6.4 | 12.9 | 0.00 | 0.00 | 0.00 | 29 | 1008.3 |
| 20260504170623 | 20 | 190 | 6.4 | 12.9 | 0.00 | 0.00 | 0.00 | 28 | 1008.4 |
| 20260504150631 | 12 | 53 | 4.8 | 8.0 | 0.00 | 0.00 | 0.00 | 37 | 1008.8 |
| 20260504140623 | 6 | 55 | 3.2 | 8.0 | 0.00 | 0.00 | 0.00 | 54 | 1008.9 |
| 20260504130613 | 3 | 68 | 3.2 | 6.4 | 0.00 | 0.00 | 0.00 | 58 | 1008.7 |
| 20260504110618 | 2 | 19 | 1.6 | 6.4 | 0.00 | 0.00 | 0.00 | 57 | 1008.2 |
| 20260504081636 | 5 | 17 | 1.6 | 8.0 | 0.00 | 0.00 | 0.00 | 51 | 1008.4 |
| 20260504080620 | 5 | 17 | 3.2 | 8.0 | 0.00 | 0.00 | 0.00 | 53 | 1008.6 |
| 20260504050624 | 10 | 10 | 1.6 | 8.0 | 0.00 | 0.00 | 0.00 | 38 | 1009.2 |
| 20260504045629 | 10 | 9 | 4.8 | 9.7 | 0.00 | 0.00 | 0.00 | 38 | 1009.2 |
| 20260504044615 | 9 | 32 | 3.2 | 8.0 | 0.00 | 0.00 | 0.00 | 38 | 1009.2 |
| 20260504043624 | 10 | 34 | 1.6 | 4.8 | 0.00 | 0.00 | 0.00 | 38 | 1009.2 |
| 20260504042631 | 10 | 26 | 3.2 | 8.0 | 0.00 | 0.00 | 0.00 | 36 | 1009.0 |
| 20260504041643 | 11 | 9 | 3.2 | 4.8 | 0.00 | 0.00 | 0.00 | 33 | 1009.0 |
| 20260504040648 | 12 | 46 | 0.0 | 3.2 | 0.00 | 0.00 | 0.00 | 31 | 1008.8 |
| 20260504035628 | 13 | 46 | 0.0 | 0.0 | 0.00 | 0.00 | 0.00 | 28 | 1008.7 |